{"data":{"norad_id":68834,"epoch":"2026-05-11T14:48:11.234880Z","epoch_age_seconds":1228010,"freshness":"OLD","line1":"1 68834U 26091D   26131.61679670  .00002448  00000+0  12871-3 0  9991","line2":"2 68834  55.0023 181.4507 0009841   9.4049 350.7153 15.19483940  2640","mean_motion":15.1948394,"eccentricity":0.0009841,"inclination_deg":55.0023,"raan_deg":181.4507,"arg_perigee_deg":9.4049,"mean_anomaly_deg":350.7153,"bstar":0.00012871,"rev_number":264,"period_min":94.769017433643,"perigee_km":500.62313253663,"apogee_km":514.17524486323,"semimajor_km":6885.5361886999,"source":"CELESTRAK","updated_at":"2026-05-25T13:38:08.125033Z"}}